This demonstration page uses our WeatherBlox Daily Observations layout. Learn more.

Left ArrowRight Arrow

Hourly Observations for May 7, 2017

Temp ( °F °C ) Dew Point ( °F °C ) Humidity (%) Winds ( mph kmh ) Pressure ( in mb ) Visibility ( mi km ) Precip ( " mm )
12:15 am 00:15 Partly Cloudy 50 10 43 6 76 76 WNW 9 15 29.62 1003 10 16 N/A
12:35 am 00:35 Partly Cloudy 50 10 43 6 76 76 WNW 7 11 29.62 1003 10 16 N/A
12:55 am 00:55 Clear 50 10 41 5 71 71 W 8 13 29.62 1003 10 16 N/A
1:15 am 01:15 Clear 48 9 41 5 76 76 W 10 17 29.65 1004 10 16 N/A
1:35 am 01:35 Clear 48 9 41 5 76 76 WNW 10 17 29.65 1004 10 16 N/A
1:55 am 01:55 Clear 46 8 41 5 82 82 W 7 11 29.65 1004 10 16 N/A
2:15 am 02:15 Partly Cloudy 46 8 43 6 87 87 W 9 15 29.65 1004 10 16 N/A
2:35 am 02:35 Partly Cloudy 48 9 41 5 76 76 WNW 8 13 29.65 1004 10 16 N/A
2:55 am 02:55 Clear 48 9 41 5 76 76 WNW 8 13 29.65 1004 10 16 N/A
3:15 am 03:15 Partly Cloudy 46 8 41 5 82 82 W 5 7 29.65 1004 10 16 N/A
3:35 am 03:35 Mostly Cloudy 45 7 41 5 87 87 W 7 11 29.65 1004 10 16 N/A
3:55 am 03:55 Partly Cloudy 45 7 41 5 87 87 N N/A 29.65 1004 10 16 N/A
4:15 am 04:15 Clear 46 8 41 5 82 82 WNW 7 11 29.65 1004 10 16 N/A
4:35 am 04:35 Clear 45 7 41 5 87 87 W 6 9 29.68 1005 10 16 N/A
4:55 am 04:55 Clear 46 8 41 5 82 82 W 6 9 29.68 1005 10 16 N/A
5:15 am 05:15 Clear 46 8 41 5 82 82 W 6 9 29.68 1005 10 16 N/A
5:35 am 05:35 Partly Cloudy 45 7 41 5 87 87 W 7 11 29.68 1005 10 16 N/A
5:55 am 05:55 Mostly Cloudy 45 7 41 5 87 87 W 6 9 29.68 1005 10 16 N/A
6:15 am 06:15 Partly Cloudy 46 8 41 5 82 82 W 5 7 29.71 1006 10 16 N/A
6:35 am 06:35 Partly Cloudy 48 9 41 5 76 76 W 9 15 29.71 1006 10 16 N/A
6:55 am 06:55 Partly Cloudy 48 9 41 5 76 76 W 9 15 29.74 1007 10 16 N/A
7:15 am 07:15 Mostly Cloudy 50 10 41 5 71 71 W 14 22 29.74 1007 10 16 N/A
7:35 am 07:35 Cloudy 50 10 41 5 71 71 WNW 22 35 29.74 1007 10 16 N/A
7:55 am 07:55 Cloudy 50 10 41 5 71 71 WNW 15 24 29.77 1008 10 16 N/A
8:15 am 08:15 Cloudy 52 11 43 6 72 72 WNW 15 24 29.77 1008 10 16 N/A
8:35 am 08:35 Mostly Cloudy 54 12 43 6 67 67 WNW 14 22 29.77 1008 10 16 N/A
8:55 am 08:55 Mostly Cloudy 52 11 43 6 72 72 W 10 17 29.77 1008 10 16 N/A
9:15 am 09:15 Cloudy 52 11 43 6 72 72 W 14 22 29.77 1008 10 16 N/A
9:35 am 09:35 Cloudy 54 12 43 6 67 67 W 13 20 29.77 1008 10 16 N/A
9:55 am 09:55 Cloudy 54 12 43 6 67 67 NW 13 20 29.80 1009 10 16 N/A
10:15 am 10:15 Cloudy 54 12 43 6 67 67 NW 14 22 29.80 1009 10 16 N/A
10:35 am 10:35 Cloudy 55 13 41 5 59 59 NNW 18 30 29.80 1009 10 16 N/A
10:55 am 10:55 Cloudy 57 14 43 6 59 59 WNW 15 24 29.80 1009 10 16 N/A
11:15 am 11:15 Cloudy 55 13 43 6 63 63 WNW 10 17 29.80 1009 10 16 N/A
11:35 am 11:35 Cloudy 55 13 41 5 59 59 WNW 15 24 29.80 1009 10 16 N/A
11:55 am 11:55 Mostly Cloudy 55 13 43 6 63 63 WNW 15 24 29.80 1009 10 16 N/A
12:15 pm 12:15 Mostly Cloudy 55 13 43 6 63 63 NW 15 24 29.80 1009 10 16 N/A
12:35 pm 12:35 Cloudy 55 13 43 6 63 63 WSW 7 11 29.80 1009 10 16 N/A
12:55 pm 12:55 Cloudy 55 13 43 6 63 63 W 9 15 29.80 1009 10 16 N/A
1:15 pm 13:15 Partly Cloudy 59 15 41 5 51 51 WNW 15 24 29.77 1008 10 16 N/A
1:35 pm 13:35 Partly Cloudy 59 15 41 5 51 51 WNW 17 28 29.77 1008 10 16 N/A
1:55 pm 13:55 Partly Cloudy 61 16 39 4 45 45 NW 24 39 29.77 1008 10 16 N/A
2:15 pm 14:15 Partly Cloudy 63 17 37 3 39 39 NW 20 31 29.77 1008 10 16 N/A
2:35 pm 14:35 Mostly Cloudy 61 16 39 4 45 45 WNW 12 19 29.77 1008 10 16 N/A
2:55 pm 14:55 Mostly Cloudy 61 16 37 3 42 42 WNW 14 22 29.77 1008 10 16 N/A
3:15 pm 15:15 Cloudy 61 16 39 4 45 45 WNW 16 26 29.77 1008 10 16 N/A
3:35 pm 15:35 Cloudy 61 16 41 5 48 48 W 14 22 29.77 1008 10 16 N/A
3:55 pm 15:55 Mostly Cloudy 61 16 41 5 48 48 WNW 9 15 29.77 1008 10 16 N/A
4:15 pm 16:15 Mostly Cloudy 61 16 41 5 48 48 W 9 15 29.74 1007 10 16 N/A
4:35 pm 16:35 Cloudy 61 16 39 4 45 45 WNW 14 22 29.77 1008 10 16 N/A
4:55 pm 16:55 Cloudy 61 16 41 5 48 48 W 6 9 29.77 1008 10 16 N/A
5:15 pm 17:15 Cloudy with Light Rain 59 15 41 5 51 51 W 10 17 29.77 1008 10 16 N/A
5:35 pm 17:35 Cloudy 61 16 43 6 52 52 W 7 11 29.77 1008 10 16 N/A
5:55 pm 17:55 Cloudy 61 16 43 6 52 52 W 15 24 29.77 1008 10 16 N/A
6:15 pm 18:15 Mostly Cloudy 59 15 39 4 48 48 W 15 24 29.77 1008 10 16 N/A
6:35 pm 18:35 Cloudy with Light Rain 59 15 41 5 51 51 W 14 22 29.80 1009 10 16 N/A
6:55 pm 18:55 Cloudy 57 14 43 6 59 59 W 14 22 29.80 1009 10 16 N/A
7:15 pm 19:15 Cloudy 55 13 41 5 59 59 WNW 13 20 29.80 1009 10 16 N/A
7:35 pm 19:35 Cloudy 55 13 39 4 55 55 W 8 13 29.80 1009 10 16 N/A
7:55 pm 19:55 Cloudy 55 13 39 4 55 55 W 14 22 29.83 1010 10 16 N/A
8:15 pm 20:15 Cloudy 55 13 41 5 59 59 W 13 20 29.83 1010 10 16 N/A
8:35 pm 20:35 Cloudy 54 12 41 5 63 63 W 9 15 29.83 1010 10 16 N/A
8:55 pm 20:55 Cloudy 54 12 41 5 63 63 W 9 15 29.85 1011 10 16 N/A
9:15 pm 21:15 Mostly Cloudy 54 12 41 5 63 63 W 9 15 29.85 1011 10 16 N/A
9:35 pm 21:35 Cloudy 54 12 41 5 63 63 W 13 20 29.88 1012 10 16 N/A
9:55 pm 21:55 Cloudy 54 12 41 5 63 63 W 8 13 29.88 1012 10 16 N/A
10:15 pm 22:15 Cloudy 54 12 41 5 63 63 WNW 7 11 29.88 1012 10 16 N/A
10:35 pm 22:35 Cloudy 54 12 39 4 58 58 WNW 13 20 29.88 1012 10 16 N/A
10:55 pm 22:55 Cloudy 54 12 39 4 58 58 WNW 9 15 29.88 1012 10 16 N/A
11:15 pm 23:15 Partly Cloudy 54 12 37 3 54 54 WNW 14 22 29.88 1012 10 16 N/A
11:35 pm 23:35 Partly Cloudy 52 11 37 3 58 58 WNW 9 15 29.88 1012 10 16 N/A
11:55 pm 23:55 Partly Cloudy 50 10 37 3 62 62 WNW 9 15 29.91 1013 10 16 N/A

Powered by AerisWeather